Theta_e
305 304 304 305 304 303 303 303 304 304 304 297 292 296 288 287 282 300 300 304 307 300 292 294 293 291 293 298 297 298 296 295 296 296 297 294 297 294 292 292 289 291 289 289 287 287 285 286 286 286 287 289 292 293 295 294 294 293 287 292 291 294 281 278 280 282 285 289 289 288 290 292 289 288 286 286 284 283 283 279 276 279 277 279 276 276 283
304 305 304 304 305 304 303 303 303 304 304 296 296 290 287 288 287 293 302 304 305 296 286 286 289 291 293 295 295 299 297 296 294 294 296 295 295 294 293 294 295 293 294 291 287 289 284 288 288 286 288 289 294 295 294 294 292 291 290 289 291 286 282 283 275 273 278 279 284 287 284 287 284 283 286 287 286 284 280 278 277 279 278 279 278 277 283
304 305 304 305 305 305 304 303 304 304 305 302 296 288 289 288 290 290 296 301 302 291 292 289 288 289 289 290 290 292 294 297 298 296 295 297 296 295 293 295 295 293 296 293 294 294 289 285 292 289 288 289 294 295 293 293 292 295 295 296 295 289 285 285 278 276 274 271 273 274 279 284 282 283 284 288 288 285 283 281 279 279 278 280 279 280 287
304 305 305 304 304 304 304 304 304 304 304 304 297 293 288 283 278 286 289 293 294 295 296 292 289 288 288 288 290 292 290 295 297 298 296 298 297 296 295 296 296 289 293 291 292 291 293 289 286 287 286 288 291 294 294 295 294 295 295 293 292 286 287 287 285 283 280 279 277 282 284 283 283 282 285 285 286 287 286 281 279 281 283 281 283 285 287
303 304 305 305 304 304 304 304 304 304 304 304 297 293 288 288 280 282 279 289 289 289 293 292 290 286 290 284 289 288 290 292 294 298 293 297 296 295 294 292 292 289 290 290 291 293 291 291 290 287 286 289 292 296 296 296 295 295 294 294 289 286 286 287 288 285 284 283 286 288 287 284 284 283 282 283 285 284 285 284 283 286 279 280 286 286 284
302 303 304 305 304 304 304 304 304 304 304 304 297 288 290 282 286 286 287 282 279 284 286 291 290 290 289 286 290 288 289 289 288 294 295 296 297 292 292 292 293 292 290 291 287 289 290 290 288 290 288 290 292 290 294 294 294 294 293 294 292 286 284 286 288 286 288 287 288 288 288 287 286 285 284 285 283 283 282 285 288 285 283 282 287 285 284
302 302 303 303 304 304 304 305 304 304 304 303 294 285 288 288 286 285 289 283 284 286 288 289 289 289 290 287 288 287 288 288 291 291 290 292 292 295 287 290 292 291 292 292 286 289 285 286 290 288 287 290 288 287 291 293 294 293 292 292 290 290 286 287 288 286 288 289 289 289 287 286 287 286 286 287 286 285 285 286 287 287 284 287 288 287 287
301 301 302 303 303 304 304 304 304 303 304 301 293 289 285 283 282 280 286 286 284 285 287 289 288 286 290 286 286 286 288 288 290 291 291 287 290 295 290 291 292 292 291 292 289 290 291 290 288 290 290 287 290 288 289 288 290 290 290 290 291 292 285 290 286 286 287 289 290 289 289 289 287 289 289 290 290 289 288 287 286 285 285 287 288 287 287
300 301 301 302 303 303 304 303 305 304 303 294 292 291 289 288 288 289 283 279 282 284 284 286 287 285 287 286 287 286 285 287 290 288 293 291 289 292 290 292 291 292 292 290 290 292 292 292 292 294 294 289 293 291 289 293 288 289 288 288 289 289 282 287 286 284 284 287 286 286 286 286 285 286 288 288 288 286 288 286 288 286 286 288 286 285 287
300 300 301 301 302 303 303 303 304 304 303 295 294 289 294 289 290 291 288 281 287 281 283 285 286 282 286 287 287 287 286 287 289 286 290 293 293 294 293 292 292 290 291 290 292 294 293 294 295 295 295 296 295 295 295 294 291 288 287 288 288 287 284 284 283 283 283 284 284 283 284 285 283 284 287 289 289 290 290 291 291 291 291 287 285 286 293
299 300 300 301 301 302 303 303 304 304 301 294 292 290 291 289 287 286 289 282 284 282 283 283 284 285 287 289 287 288 287 287 289 286 284 291 292 294 294 292 291 288 290 293 295 295 296 297 296 296 296 295 294 294 296 295 294 291 289 286 285 285 285 283 284 281 281 281 281 284 283 278 280 291 294 292 289 289 288 288 291 293 292 290 292 292 294
298 299 299 300 300 301 302 303 302 304 303 298 296 292 292 292 289 287 284 280 281 283 281 280 284 285 284 286 288 287 287 287 287 290 286 288 291 292 293 292 292 285 291 294 297 297 296 295 295 295 294 293 293 293 293 292 293 293 292 289 285 285 285 284 285 283 282 280 283 281 277 279 290 295 295 295 294 293 291 291 292 292 293 293 293 294 294
298 298 299 299 300 300 301 302 303 303 303 300 297 292 293 294 289 286 283 281 279 280 279 281 283 284 285 286 286 287 288 288 289 289 289 290 289 290 291 291 291 291 294 294 295 294 289 285 285 284 285 286 288 290 290 291 291 292 293 292 287 285 285 283 284 285 286 282 281 275 278 287 288 288 290 291 291 290 289 287 290 292 292 293 292 294 295
297 298 298 299 299 300 300 302 302 303 303 302 297 295 295 295 290 287 285 281 281 283 282 280 280 279 282 284 284 286 287 287 287 288 287 290 290 290 290 291 292 295 294 295 292 290 284 281 281 282 281 281 280 281 283 289 289 290 291 292 292 289 283 283 281 285 279 282 282 281 285 285 286 286 285 285 285 285 287 284 287 292 292 292 292 293 293
297 297 297 298 299 299 300 301 301 302 303 302 299 297 296 295 294 290 287 285 280 281 282 278 281 282 282 280 283 282 284 285 285 285 285 286 287 288 291 292 293 295 293 293 286 284 281 281 278 277 277 278 276 277 280 277 282 291 292 292 292 290 286 286 284 282 285 280 277 277 278 276 282 288 289 289 289 291 291 289 285 287 286 288 288 287 287
296 296 296 297 297 298 299 299 301 301 302 302 298 297 297 297 296 294 290 285 282 277 281 285 285 282 279 279 282 282 281 284 283 283 281 282 284 288 289 290 291 292 291 288 285 284 283 282 279 280 276 276 277 274 271 276 279 280 290 291 291 291 291 286 285 283 283 280 277 278 276 279 286 285 285 286 288 291 288 287 284 285 282 286 287 285 286
297 297 297 297 297 297 298 300 300 300 301 301 297 296 295 299 295 293 289 286 285 280 287 288 286 284 280 278 280 280 282 282 283 281 280 281 281 283 288 288 288 291 291 288 285 283 282 279 278 277 277 277 275 273 275 275 274 279 284 286 288 287 287 286 283 281 283 282 280 277 282 280 284 284 286 289 288 291 287 279 279 285 283 285 285 285 284
297 297 297 297 297 297 298 299 300 300 300 301 298 295 295 299 298 296 291 287 284 283 287 286 286 283 282 280 281 282 283 281 281 280 280 279 279 281 284 287 285 288 291 287 283 281 281 281 278 277 277 279 278 278 274 277 274 280 281 282 283 284 285 286 281 283 282 283 280 282 282 286 287 286 285 284 287 287 279 275 284 284 284 283 284 285 284
297 297 297 297 297 298 298 298 298 299 300 300 298 296 295 298 298 296 292 288 286 281 287 289 288 287 287 288 282 284 283 286 284 282 277 280 279 281 283 283 287 285 286 284 284 281 281 280 282 276 275 277 280 277 277 277 275 281 283 280 281 284 285 285 285 282 280 281 279 279 283 285 283 282 286 285 285 279 278 282 283 283 282 283 284 284 283
296 297 297 297 297 297 298 298 298 298 299 300 298 293 295 298 298 297 291 285 287 285 287 286 288 285 287 286 283 284 281 283 283 282 282 280 280 285 285 282 284 284 283 284 281 280 281 279 281 280 277 275 276 278 276 273 279 279 279 284 282 282 281 280 282 284 284 282 279 279 275 284 284 287 285 285 281 281 285 284 284 282 283 284 282 284 285
295 295 296 296 296 296 297 298 298 298 299 299 298 294 292 297 298 298 297 292 286 283 284 288 289 289 288 286 288 289 287 284 284 283 282 281 284 288 279 280 285 284 281 284 279 281 278 278 279 276 277 280 276 278 272 277 276 278 280 280 280 283 280 278 282 286 278 280 277 278 285 286 288 285 281 284 283 287 285 287 287 285 283 283 284 283 285
296 296 296 296 296 296 296 297 297 297 297 298 297 295 290 294 297 297 297 296 288 285 286 287 289 290 291 290 290 291 291 290 290 289 284 282 285 284 281 285 284 282 283 281 277 278 276 273 278 273 276 274 276 277 270 274 271 274 276 279 276 282 281 281 278 280 283 278 281 286 284 286 287 285 284 286 289 288 287 287 287 288 287 285 288 287 287
295 295 295 295 295 296 296 296 297 297 296 297 296 293 290 293 294 298 296 290 291 291 290 287 289 289 290 290 290 291 292 293 292 288 288 286 279 281 279 280 280 284 282 282 280 281 277 279 275 274 274 273 276 274 273 271 268 272 275 279 280 279 280 281 281 279 280 280 284 283 282 283 286 286 284 286 287 287 287 288 288 287 288 287 288 288 287
295 294 295 296 296 295 296 296 297 297 297 297 297 293 292 293 294 294 293 291 287 284 286 287 284 283 286 286 290 289 290 289 291 289 289 291 282 279 283 282 283 279 278 284 282 282 277 277 275 277 275 273 277 272 274 273 273 271 272 274 278 280 281 280 279 277 279 276 281 281 283 283 283 283 283 283 284 284 285 285 286 285 285 284 284 286 286
296 296 295 295 295 295 295 295 295 296 297 297 297 296 296 293 294 294 289 283 283 283 278 283 284 289 290 291 291 286 289 292 293 291 289 289 289 285 282 285 286 283 281 283 281 282 277 274 277 273 273 276 281 274 274 274 273 276 274 271 274 277 278 279 275 277 277 277 281 280 282 283 282 283 282 284 285 284 283 284 284 284 283 283 284 284 283
295 294 294 295 295 295 295 296 295 295 296 297 295 292 291 291 295 296 292 290 286 284 280 279 283 289 289 290 289 290 290 291 291 290 288 288 288 289 288 286 285 286 286 285 282 280 277 277 273 270 274 277 280 273 271 277 274 276 277 278 279 276 280 273 276 277 276 277 279 278 279 279 280 279 281 282 283 282 282 282 282 282 283 284 284 282 284
295 294 294 294 295 295 294 295 295 295 296 296 292 293 293 293 295 293 289 287 284 279 282 279 282 283 288 287 288 288 290 291 290 289 288 288 287 288 288 287 286 282 283 280 281 279 278 272 275 273 273 273 275 269 273 276 277 274 271 276 279 279 276 276 276 272 273 275 277 276 276 273 278 279 282 283 281 282 281 282 283 283 283 283 283 284 283
294 294 293 294 295 295 295 296 295 295 296 295 294 292 293 292 293 295 294 292 287 280 281 281 280 280 286 285 287 289 290 291 290 289 288 287 287 287 287 286 284 282 280 280 276 275 273 276 273 273 274 273 275 273 276 276 277 271 273 277 280 278 278 278 274 274 273 278 279 279 279 278 280 283 283 280 281 281 281 281 280 282 282 282 282 283 283
294 294 294 294 294 295 295 295 295 295 295 295 290 290 290 293 294 295 295 295 292 285 283 283 284 283 278 282 289 287 289 290 289 288 287 286 286 286 285 285 284 282 280 278 277 273 269 271 277 274 272 278 275 270 275 271 271 273 276 280 280 279 280 281 279 279 278 279 280 280 280 280 280 280 279 278 278 279 279 279 280 280 280 281 281 281 281
293 293 295 295 295 295 295 296 295 295 295 290 284 283 282 286 293 293 296 295 292 286 282 279 276 280 283 281 281 286 287 288 288 287 286 286 285 285 285 284 282 285 278 279 278 274 275 273 276 278 279 282 275 274 275 269 271 273 279 281 281 281 280 282 281 281 282 281 280 281 280 279 280 280 279 276 276 277 278 278 277 276 276 278 279 279 280
293 294 295 295 295 295 295 295 294 295 294 288 284 279 278 276 285 295 296 295 293 287 283 283 278 281 277 279 284 284 285 286 286 286 286 286 285 284 284 285 280 284 278 279 278 275 277 272 275 275 279 282 280 274 271 270 267 268 279 281 281 280 280 282 279 277 277 275 276 278 279 279 279 279 279 275 274 276 276 274 274 274 275 275 276 277 278
293 294 295 295 295 295 295 295 294 295 291 287 283 281 283 284 288 295 297 296 291 286 282 278 278 276 277 282 281 285 286 286 286 284 284 285 281 283 282 285 281 282 284 277 275 278 275 275 275 273 277 283 282 269 271 270 270 274 279 278 277 277 278 277 275 273 272 273 276 278 279 276 275 276 275 274 273 275 273 272 272 272 273 274 274 275 274
293 293 294 294 295 294 295 294 295 293 288 290 294 295 295 293 295 297 297 293 288 284 285 280 275 278 277 276 282 282 287 285 283 284 281 284 281 283 278 282 282 281 289 283 276 277 281 279 274 276 279 282 277 276 277 275 276 280 280 277 276 274 274 274 271 270 270 270 273 277 277 275 272 272 272 272 273 273 271 271 271 271 270 270 270 271 271
293 293 294 294 294 294 294 295 295 295 293 288 282 285 290 295 295 296 296 291 286 285 283 279 276 272 273 282 276 281 288 282 281 284 279 284 281 283 279 282 281 279 280 281 280 277 274 278 278 276 279 273 276 277 275 278 281 280 277 272 270 269 272 274 271 269 267 268 268 268 269 270 271 271 271 272 271 272 270 268 268 267 267 268 268 268 269
294 293 293 294 294 295 294 293 289 287 284 285 286 288 292 295 295 296 294 288 281 279 279 278 279 274 271 271 274 280 287 284 279 282 280 283 286 281 283 278 281 277 275 283 274 276 278 278 280 275 274 279 275 272 277 280 280 279 273 272 267 267 272 275 270 264 264 264 266 267 268 268 269 268 269 269 269 268 266 265 266 266 264 265 266 266 266
294 293 293 294 293 293 289 289 287 283 282 282 284 291 295 295 296 293 291 289 285 280 278 278 279 274 275 271 271 277 286 281 283 283 282 283 280 282 281 281 276 279 280 280 276 279 275 279 276 273 281 277 274 277 279 281 279 276 272 271 264 266 267 268 265 262 263 263 263 266 265 265 265 266 266 266 267 265 264 264 264 263 262 262 263 264 263
293 292 293 292 290 286 282 283 287 286 284 288 290 295 295 294 290 289 288 286 284 285 280 279 275 276 277 274 276 278 283 274 283 280 282 279 277 281 279 279 275 280 276 276 277 276 279 281 273 272 276 273 276 275 268 265 269 272 266 263 263 263 262 262 262 261 261 264 263 264 263 263 263 264 265 264 263 263 261 261 261 260 259 260 260 261 261
292 292 288 285 282 278 278 281 283 288 293 292 293 287 285 287 280 281 282 280 282 283 278 279 276 278 277 277 272 282 281 278 282 276 278 282 278 276 280 277 277 278 269 275 276 280 275 272 272 273 274 268 264 262 263 262 261 261 261 260 260 260 260 260 260 260 262 267 266 262 260 261 261 261 261 260 260 260 261 261 260 260 260 260 260 260 259
290 286 284 284 281 278 279 282 291 294 291 290 288 280 276 281 279 275 275 279 281 275 279 279 276 278 277 276 278 284 281 278 276 278 274 282 277 273 278 272 277 276 271 271 272 281 271 270 271 270 273 267 265 263 261 260 259 258 258 259 258 259 259 258 259 258 260 261 260 257 257 258 258 258 258 258 259 259 259 259 259 259 258 258 258 258 258
283 280 279 279 279 281 286 291 294 289 287 279 279 279 273 277 276 271 279 272 272 278 280 273 277 277 280 277 276 275 283 279 274 274 276 278 282 275 276 269 272 273 268 270 270 276 272 269 269 267 269 269 268 261 259 259 257 256 256 256 256 257 256 256 256 257 257 257 258 257 257 257 258 257 256 257 257 256 256 256 256 257 257 257 258 258 257
283 282 281 279 282 283 285 288 287 284 281 275 274 274 273 270 272 275 274 272 272 273 279 278 278 275 277 279 279 275 280 281 277 279 278 274 278 277 271 270 276 267 266 266 271 267 267 264 266 269 272 271 263 257 258 256 255 255 254 254 254 254 255 255 255 255 255 254 255 255 254 253 253 254 255 255 255 255 255 255 255 255 256 256 256 256 257
285 285 284 286 285 286 284 282 280 274 273 276 273 269 271 273 274 270 272 271 269 274 272 276 274 276 276 279 277 280 277 278 279 277 274 272 279 273 270 267 269 266 266 270 269 266 266 261 263 262 267 255 253 254 254 253 253 251 252 253 253 253 253 253 253 253 253 253 253 253 253 252 251 253 253 253 253 253 254 254 254 254 254 255 256 255 256
291 289 287 283 280 277 278 273 275 276 270 267 268 266 268 265 268 270 269 271 273 275 276 279 278 282 278 278 277 278 277 281 277 274 273 272 278 272 265 266 266 263 267 268 268 269 263 264 261 270 258 252 253 252 252 251 252 252 252 253 252 253 253 252 252 251 252 252 252 252 251 251 251 252 253 253 253 252 253 254 254 254 254 254 254 255 255
287 284 277 275 277 274 276 267 275 271 268 268 267 264 266 267 266 268 268 269 272 274 277 275 276 277 274 278 277 276 277 278 281 274 272 273 268 267 267 263 262 264 266 266 267 265 265 263 269 263 253 252 251 251 251 251 250 250 250 252 251 253 253 253 253 252 252 252 252 251 251 250 251 252 251 251 252 252 252 252 254 254 254 254 254 253 254
280 275 273 272 270 272 272 265 272 269 266 267 271 268 269 267 269 271 271 275 275 275 278 279 278 278 275 274 275 276 278 273 279 272 270 271 267 267 264 263 264 261 262 264 261 259 258 265 259 249 254 252 253 251 251 251 251 250 250 249 251 250 251 251 251 251 251 251 251 251 250 251 251 252 251 252 252 252 252 252 253 254 253 253 253 253 253
278 275 274 270 267 268 269 266 267 264 267 267 268 269 272 273 273 273 268 267 277 277 277 278 278 278 274 271 275 274 273 272 270 270 272 271 270 267 268 266 265 262 261 258 259 263 267 270 261 257 255 253 251 250 249 250 249 249 248 248 250 250 249 250 250 250 251 251 251 251 251 251 250 251 251 252 252 252 252 252 253 253 253 253 253 253 253
273 273 272 270 267 266 267 265 265 262 262 259 261 258 263 268 267 268 261 263 278 278 279 279 279 277 274 271 272 271 270 269 268 271 271 266 266 270 272 267 264 262 261 258 257 259 263 260 254 253 252 251 249 248 248 249 248 248 248 249 249 249 250 250 249 249 250 250 250 250 250 250 250 251 251 252 252 252 252 252 252 253 253 252 253 254 254
270 272 271 266 264 264 262 259 259 258 259 259 259 261 261 263 270 268 263 260 272 279 277 276 274 275 273 272 273 270 267 266 268 268 270 270 270 266 266 264 262 263 260 260 266 266 260 255 251 251 250 250 249 249 248 249 248 248 248 249 249 248 249 249 248 248 249 249 249 249 250 250 249 250 250 251 251 252 252 252 252 252 253 252 253 253 253
266 265 264 261 261 259 258 259 260 260 260 260 262 262 263 267 265 261 261 260 271 277 278 277 276 276 271 272 271 271 269 272 269 269 269 265 265 265 264 261 260 258 262 264 264 258 255 252 250 249 249 249 249 249 249 248 248 247 248 248 248 248 248 248 248 249 249 248 247 247 247 249 250 249 250 250 249 251 253 252 252 252 252 252 253 253 253
261 257 255 258 261 261 261 261 261 260 260 262 263 264 264 265 263 261 260 262 270 276 277 278 277 274 271 271 268 269 269 268 268 269 265 263 261 259 258 255 258 262 263 256 252 249 249 250 250 248 248 248 249 248 247 248 250 249 248 248 248 248 248 249 249 249 246 246 246 246 247 248 247 247 249 250 251 252 252 252 252 252 252 252 252 252 253
260 255 251 250 254 255 255 261 261 261 261 260 258 256 257 259 259 259 259 255 260 276 273 270 269 269 267 267 268 266 266 270 269 266 266 263 260 259 260 262 262 259 253 248 249 250 250 249 249 248 247 247 246 248 248 248 249 249 248 249 248 248 248 248 248 248 246 245 246 249 247 246 247 247 249 249 250 251 251 252 252 251 252 252 252 252 252
258 256 253 254 253 252 251 255 254 254 254 254 253 254 256 257 257 257 258 256 265 274 269 266 267 265 263 264 266 268 268 268 267 266 262 260 258 261 257 258 256 250 249 249 249 247 248 246 247 247 247 247 248 246 246 246 246 245 246 246 246 246 246 245 245 244 245 245 245 245 246 246 247 247 249 249 250 249 249 249 251 251 251 251 251 252 252
Wind_Speed
11 12 12 11 10 7 7 6 6 4 2 2 1 0 3 1 1 2 4 3 3 6 4 2 3 4 2 3 4 2 1 6 5 4 1 1 3 0 1 3 1 1 2 1 2 5 2 5 6 3 4 0 3 5 3 6 6 7 1 2 2 4 3 2 2 1 2 2 2 3 3 2 1 2 2 3 4 5 7 5 6 7 2 3 2 5 17
9 10 12 12 12 10 8 8 7 6 5 2 1 2 1 0 0 1 2 1 1 6 8 8 9 4 1 4 2 5 3 4 3 4 4 5 4 4 2 0 2 0 1 1 4 2 3 1 3 1 1 2 5 4 5 4 1 4 5 7 5 4 4 7 2 1 2 4 3 2 4 1 1 2 3 4 3 3 2 3 1 1 6 7 7 13 16
8 9 12 13 13 14 10 9 9 9 8 3 1 1 2 1 1 1 2 2 2 8 1 3 5 6 4 4 7 4 3 4 6 5 5 2 2 3 4 4 2 2 1 2 2 1 2 2 2 3 1 2 2 4 7 6 3 2 2 4 3 3 3 7 6 9 8 4 6 6 5 7 3 3 3 5 9 6 4 6 2 7 5 8 5 10 16
8 8 9 12 14 14 13 10 10 11 10 7 1 2 2 1 2 2 0 1 1 2 3 2 0 6 6 5 5 5 4 2 6 7 3 7 3 5 3 2 4 4 2 2 1 3 1 2 1 3 2 1 2 3 6 4 2 0 9 5 4 2 1 3 6 10 11 8 3 3 4 3 4 4 6 5 3 8 7 4 6 12 9 9 10 12 18
9 8 9 10 14 15 14 14 12 12 11 9 3 1 1 1 1 3 4 2 1 4 2 3 2 4 5 5 4 7 7 2 1 5 3 4 4 2 3 3 6 3 6 8 6 4 1 0 1 3 2 0 0 5 5 4 3 8 3 4 4 2 1 2 2 2 4 6 4 2 4 1 2 1 2 1 0 2 7 9 12 7 4 13 12 13 12
10 10 10 10 11 14 16 15 14 13 13 11 4 1 2 2 3 2 4 4 6 7 9 11 6 5 0 4 3 6 9 4 5 3 3 4 6 4 2 4 8 9 12 7 6 6 7 5 5 4 2 2 0 2 6 2 4 1 2 2 4 4 2 3 0 3 4 3 4 3 2 2 2 2 1 0 2 2 6 9 12 5 9 16 11 3 9
11 10 10 10 10 13 16 15 15 16 14 12 5 2 2 1 2 3 2 2 2 10 1 6 8 9 6 1 3 8 12 12 8 4 4 3 3 7 5 10 10 7 7 9 5 8 6 8 8 5 4 6 3 1 0 1 2 2 2 1 1 4 4 4 3 5 7 6 8 6 4 4 3 5 5 4 3 7 9 12 11 9 8 9 11 11 14
12 11 11 11 11 11 15 17 18 17 13 11 6 7 3 5 1 4 2 3 1 4 5 6 9 9 8 4 4 3 10 14 8 3 7 5 7 6 9 8 9 7 7 9 9 10 12 11 10 5 7 4 4 4 4 4 1 1 5 4 2 6 4 8 3 5 11 15 11 5 7 7 7 5 3 4 7 10 11 7 7 4 7 11 16 16 18
14 13 13 12 11 11 13 17 17 19 13 7 7 5 5 0 1 0 1 2 2 2 3 5 8 8 9 7 8 2 5 10 9 3 5 9 7 8 15 12 6 6 7 6 6 5 8 6 9 10 13 11 5 7 3 7 6 2 2 1 0 3 2 2 4 6 8 11 9 10 3 2 4 10 12 15 16 16 13 11 7 7 13 14 7 8 14
15 15 14 14 13 12 12 14 19 20 15 6 6 8 6 1 1 2 1 2 2 2 3 3 6 9 11 12 14 7 7 2 7 4 4 9 10 9 12 6 6 4 6 10 11 6 4 4 2 3 3 5 6 4 3 6 9 7 6 3 6 5 6 6 5 7 10 4 5 4 4 2 5 12 20 21 17 17 17 14 11 14 14 11 10 16 15
16 16 16 16 15 14 14 15 16 20 14 10 8 6 6 8 6 1 0 2 2 3 3 5 10 6 5 11 6 4 1 3 7 12 3 6 7 6 7 8 9 5 10 9 3 6 7 6 5 5 6 5 4 3 5 5 3 4 8 3 1 4 7 6 5 7 5 4 6 4 5 9 13 14 7 9 17 18 16 17 21 21 12 9 10 10 10
17 17 17 17 17 16 15 15 16 19 17 10 6 4 4 5 3 3 4 9 8 3 4 6 10 4 5 8 9 7 9 6 4 4 4 2 4 5 6 7 8 5 2 3 10 9 8 5 7 8 7 5 5 3 5 3 3 3 3 5 4 8 5 5 4 4 5 3 7 4 13 13 11 0 7 13 15 13 16 20 18 14 12 10 13 16 17
18 18 18 18 18 18 17 17 17 16 18 11 9 7 6 5 5 4 2 5 8 7 7 8 5 3 2 4 8 11 10 6 4 2 1 2 0 3 3 5 9 4 5 8 9 9 5 3 5 3 3 3 3 3 4 5 6 3 4 4 6 4 5 3 1 4 1 3 5 9 7 1 3 6 7 2 2 7 7 11 12 9 10 12 15 16 16
19 19 19 19 19 19 19 18 18 18 19 15 10 9 6 9 8 7 5 4 8 6 6 6 5 4 4 5 6 7 7 6 5 1 0 0 2 3 2 1 4 9 8 9 7 7 3 2 1 1 2 2 1 1 5 7 5 8 8 7 7 8 2 2 0 2 5 3 8 9 6 12 11 9 5 4 4 4 8 8 9 9 6 7 11 12 8
20 20 19 19 19 19 20 20 19 19 17 18 10 9 9 9 9 8 3 5 8 5 7 11 7 11 6 3 3 2 5 6 8 9 2 1 2 1 1 2 2 10 6 9 1 3 4 3 2 4 1 4 7 7 1 2 3 12 14 11 9 8 9 5 5 4 6 6 5 1 3 10 13 13 2 2 4 6 7 7 4 6 5 3 4 2 2
20 20 20 20 20 20 20 20 19 19 19 16 10 10 10 10 8 7 5 6 6 10 11 13 9 3 4 4 5 6 5 5 6 5 1 1 0 1 1 3 2 1 4 4 3 5 3 5 5 8 7 6 3 1 3 2 2 2 9 10 10 8 7 5 9 4 3 5 7 8 7 8 6 6 3 4 5 4 4 5 8 1 1 1 3 2 1
20 20 20 20 21 21 21 20 20 20 19 19 8 9 10 12 10 9 8 5 7 12 5 13 7 3 2 2 3 4 5 6 6 7 5 5 3 2 1 3 2 3 3 5 1 3 4 3 2 3 2 4 4 7 1 2 2 1 3 3 10 10 7 6 8 9 10 7 7 9 4 7 7 2 1 2 3 6 4 6 4 2 3 1 0 2 2
21 21 20 20 20 21 22 21 20 20 20 20 10 8 9 11 12 6 8 8 9 10 10 4 11 9 10 5 6 2 3 3 3 2 3 3 4 1 3 1 2 2 0 7 3 5 5 5 9 7 8 3 3 2 7 5 4 5 7 10 7 9 7 10 14 12 12 13 9 6 7 5 6 5 6 6 1 3 3 9 2 4 4 3 2 3 4
22 22 22 21 21 20 21 22 22 21 20 20 10 8 10 9 12 11 6 7 9 11 9 9 6 9 7 3 4 3 4 8 6 6 3 3 3 4 6 1 2 4 1 5 5 5 7 6 2 2 5 4 3 8 2 5 5 1 9 6 4 7 4 3 9 12 12 12 12 10 8 4 3 3 2 3 5 7 11 2 2 3 3 4 3 3 4
23 22 22 22 22 22 21 21 22 21 21 22 14 8 5 10 12 15 12 8 6 11 10 9 8 11 5 11 8 8 1 4 5 7 8 9 1 8 4 3 3 2 2 4 7 3 7 9 8 3 6 4 4 3 1 4 1 7 4 7 7 9 7 7 11 7 6 5 8 8 11 3 2 0 1 1 4 3 2 1 2 3 2 5 3 4 3
24 23 22 22 22 23 22 22 22 22 22 23 17 7 10 6 10 14 14 9 5 9 12 5 7 13 7 8 11 11 10 11 7 7 4 4 6 10 10 8 8 5 6 7 10 7 4 7 6 4 2 6 5 3 6 5 5 5 5 4 4 4 6 3 6 7 6 8 9 7 4 3 3 1 5 0 3 2 6 5 0 2 3 1 4 4 4
25 23 23 22 23 23 23 22 22 23 24 23 20 7 10 7 8 10 12 12 9 8 3 4 6 10 11 7 9 10 11 11 9 9 8 6 4 5 3 5 4 3 2 3 2 1 1 2 1 3 5 2 2 6 3 6 5 3 1 2 3 7 8 4 5 3 6 4 3 2 3 4 0 3 3 3 3 2 6 5 3 2 2 4 0 3 3
24 25 24 24 23 23 23 23 23 23 24 24 17 8 9 6 7 8 10 11 5 3 2 3 2 3 3 4 5 8 8 8 8 5 8 8 4 2 4 4 4 1 0 2 6 3 2 5 5 4 2 3 7 5 4 3 3 4 6 4 5 3 1 1 1 5 2 2 2 4 1 2 1 0 2 3 3 1 3 5 1 3 6 3 3 4 3
24 27 25 24 24 25 24 24 24 23 24 24 17 7 8 8 6 6 8 8 9 8 3 4 4 10 12 14 9 2 3 3 5 5 4 10 8 3 0 0 2 2 1 1 2 5 4 3 5 2 4 5 5 4 8 8 7 4 3 2 1 3 1 1 3 2 5 8 1 4 4 1 1 3 3 2 1 1 3 4 5 4 4 4 4 5 4
25 24 27 26 26 26 26 26 25 24 24 24 20 12 9 8 7 9 9 9 6 9 7 5 13 9 10 5 5 4 5 5 6 8 6 6 9 9 7 2 2 6 3 3 1 5 2 3 1 1 5 6 8 8 3 7 8 4 4 6 1 3 2 2 2 2 5 6 3 2 1 2 4 4 1 3 2 1 4 4 3 3 3 2 4 2 4
23 26 28 28 28 28 27 26 26 26 25 25 21 10 10 9 7 9 10 5 1 2 10 7 7 4 5 8 10 7 5 7 8 6 5 6 5 7 9 2 3 3 4 2 5 5 3 2 1 1 6 7 3 4 6 7 4 0 6 9 6 3 4 4 4 5 4 5 6 2 1 1 2 0 4 4 3 2 1 2 3 4 4 6 6 3 5
21 24 26 26 28 29 29 27 27 26 26 24 16 10 10 8 9 12 11 6 4 4 7 8 1 2 7 14 6 4 5 10 9 8 6 6 7 6 7 7 6 2 6 3 2 3 1 1 3 4 3 5 3 3 1 1 2 2 3 5 0 2 5 3 3 1 2 7 5 1 1 3 4 5 7 7 5 5 4 4 5 5 5 5 5 7 5
20 23 26 26 27 27 26 25 25 28 27 26 16 10 8 10 9 10 11 10 13 4 2 7 5 5 1 7 3 8 9 10 11 10 8 7 9 10 9 9 7 6 3 6 1 2 2 3 4 3 0 2 3 3 1 1 3 3 1 5 4 5 5 5 5 6 5 3 5 2 3 3 6 7 7 6 6 6 7 6 4 4 4 5 6 8 9
22 22 24 26 27 28 29 28 30 29 29 22 9 9 9 11 10 11 13 12 9 4 2 1 2 7 10 6 8 7 8 13 12 12 10 9 10 8 9 9 8 6 4 4 3 3 3 4 2 3 2 5 4 3 0 2 3 6 6 5 3 3 4 3 7 2 2 3 5 5 3 4 5 3 3 7 6 5 4 3 3 5 6 7 6 5 6
23 24 23 27 29 30 32 30 32 30 27 12 5 3 10 8 11 13 13 14 10 2 5 6 5 4 2 4 4 7 10 11 12 13 12 10 10 9 8 9 4 3 4 5 5 2 3 2 1 1 1 1 3 2 1 2 3 5 5 8 6 6 2 2 4 4 6 2 1 1 3 3 3 2 8 6 7 6 4 5 7 6 6 6 6 6 4
25 24 26 27 30 31 32 33 33 31 26 9 7 9 9 10 9 12 17 15 12 6 3 2 6 2 2 1 4 14 10 12 12 13 12 10 8 7 5 6 1 5 3 2 3 4 2 1 2 2 1 2 3 1 4 2 3 3 6 8 7 3 3 5 0 2 2 3 2 1 1 1 2 1 3 10 10 7 4 5 5 5 7 5 5 4 5
25 26 26 27 29 30 32 31 33 30 15 11 12 9 5 3 1 14 19 15 10 7 7 6 3 2 4 3 2 3 11 8 6 4 3 5 4 4 4 7 5 3 4 4 1 1 2 4 3 3 4 5 4 1 2 2 5 8 8 4 2 2 2 4 4 3 5 4 2 1 0 3 8 4 3 8 6 3 5 6 7 9 9 6 5 3 4
25 26 28 27 28 29 29 32 34 26 12 14 16 17 8 8 8 15 17 14 8 4 1 3 6 3 3 5 4 1 8 7 5 7 5 4 7 5 4 3 4 2 3 5 2 4 3 3 2 4 6 2 3 2 6 9 10 13 9 3 3 3 5 4 6 7 7 7 5 3 4 0 1 2 4 3 2 4 6 7 8 7 8 9 11 11 9
26 26 26 26 26 29 32 34 34 30 19 10 9 11 12 16 7 16 15 12 3 2 2 3 3 4 4 2 9 5 8 11 9 12 8 3 3 7 6 5 3 5 4 9 3 3 2 3 7 6 2 1 2 4 8 10 12 12 3 5 0 1 2 4 4 6 5 5 4 2 2 2 2 3 2 3 4 3 5 7 9 12 10 7 7 8 10
26 27 25 26 26 28 32 30 15 12 11 9 9 9 11 18 13 16 18 9 8 5 4 3 2 7 5 2 6 6 7 9 9 9 9 5 4 7 5 5 4 7 4 3 1 4 7 6 5 4 7 4 4 4 5 9 10 5 4 4 1 1 0 0 1 2 3 1 2 2 2 1 1 3 2 3 4 6 9 7 6 7 11 10 9 9 9
25 26 24 25 26 22 15 18 9 7 9 9 10 11 20 21 19 12 13 9 4 4 5 5 7 9 11 11 11 4 6 5 7 6 2 4 4 1 3 5 6 6 2 5 5 4 5 5 5 5 6 9 8 7 9 8 7 4 5 5 2 3 2 1 1 5 4 2 4 1 4 4 5 2 1 2 4 5 8 9 7 5 5 9 9 10 10
24 24 23 21 12 6 10 8 7 10 8 10 10 15 20 16 5 7 9 8 2 0 3 6 7 10 12 8 3 3 10 9 8 8 6 6 7 3 4 5 7 3 4 2 6 9 6 3 4 4 7 10 9 4 1 1 2 5 6 5 4 3 3 3 2 3 6 3 1 4 4 4 3 2 4 5 6 6 7 7 8 9 10 12 11 10 8
22 20 10 6 5 6 7 9 7 10 14 17 17 9 10 11 8 7 5 7 2 4 4 2 10 7 3 10 10 9 10 6 9 7 5 6 7 3 2 3 5 5 7 7 6 4 3 1 4 7 7 1 2 1 0 3 4 5 6 5 4 3 3 3 2 2 3 5 2 4 8 4 1 3 5 4 5 6 5 5 5 5 6 8 9 10 12
17 5 6 6 6 7 7 6 11 21 12 7 8 4 3 2 5 5 6 3 4 6 3 7 9 8 11 10 7 5 4 13 14 7 9 8 7 6 4 7 4 5 2 2 6 7 3 2 3 3 8 3 3 3 4 4 5 5 5 5 4 3 3 3 5 5 2 1 0 1 0 3 7 7 3 5 5 5 5 5 5 6 6 8 9 9 10
5 7 6 6 8 5 5 11 25 15 7 5 3 4 4 4 9 4 3 5 3 2 5 8 3 7 11 18 17 9 3 10 13 12 11 7 1 5 3 3 1 4 4 5 4 4 6 6 3 3 8 6 7 4 7 6 6 4 4 4 5 5 3 4 3 4 4 3 3 2 2 3 3 5 6 6 7 9 7 5 6 7 8 9 11 11 11
7 5 6 8 7 3 5 9 7 5 5 3 3 1 2 3 3 2 4 5 4 3 1 5 7 5 3 4 15 15 2 4 3 4 5 5 1 6 4 5 2 5 2 3 2 5 2 3 2 7 12 8 7 8 7 6 4 4 3 3 3 3 3 2 3 2 2 1 1 2 2 3 4 4 4 5 6 7 8 8 9 8 10 10 11 11 10
11 9 5 7 6 6 6 4 3 4 1 1 3 5 3 1 2 2 2 5 5 3 3 4 11 12 11 13 8 8 4 0 4 3 3 4 2 5 3 1 1 4 3 4 4 3 4 3 4 5 8 4 3 5 6 6 3 3 2 3 1 2 2 2 0 1 1 0 1 2 3 3 4 4 4 5 6 7 8 9 10 8 9 9 9 10 10
18 14 10 5 3 1 2 3 3 3 5 2 3 4 1 4 4 6 3 1 2 4 6 3 4 6 4 4 6 3 3 3 4 2 4 4 1 3 3 1 2 2 3 2 4 3 3 5 5 11 4 5 5 5 4 4 3 3 1 2 1 0 0 1 1 1 1 0 1 1 3 3 4 5 5 5 7 10 8 8 9 10 9 9 9 9 9
10 6 4 1 3 3 2 6 1 4 2 1 4 7 5 5 2 2 4 6 4 4 7 15 12 17 10 0 6 4 3 3 2 3 3 1 4 2 2 2 4 4 2 3 2 4 5 3 8 3 4 5 5 4 5 4 4 3 2 1 1 1 1 1 1 1 2 1 1 2 2 3 6 4 4 5 5 9 10 9 9 9 9 9 9 9 10
7 3 3 3 2 1 2 3 1 2 6 4 3 3 6 10 6 6 9 5 5 13 9 13 16 17 13 5 5 2 2 4 0 5 3 3 3 1 4 3 1 2 3 3 2 1 3 6 2 4 6 7 6 4 4 4 3 3 3 1 0 2 1 1 0 1 2 2 3 3 3 4 4 4 4 5 5 5 7 9 9 8 8 8 9 10 9
6 6 5 5 2 2 1 1 2 2 1 1 3 4 7 9 12 9 2 1 10 10 14 14 12 13 10 1 6 6 2 4 4 1 3 2 4 1 1 1 4 4 2 3 3 8 12 10 6 7 8 9 8 6 5 4 3 3 4 2 1 0 0 1 1 0 2 2 3 2 3 3 4 5 5 6 5 6 5 6 6 7 8 8 9 10 10
4 2 2 2 3 1 1 4 4 1 1 1 4 2 3 2 2 5 3 2 13 13 12 9 11 10 13 6 5 3 2 2 4 1 4 4 3 1 2 3 1 2 5 4 4 6 7 6 2 4 8 8 7 5 4 4 3 3 2 2 0 0 0 0 1 1 3 2 3 3 3 4 4 5 5 6 6 5 5 5 6 6 6 7 9 8 9
5 1 2 3 3 1 2 3 1 2 3 3 3 2 2 3 5 6 2 2 6 13 16 14 12 7 7 2 5 6 4 2 5 1 2 3 3 4 1 3 1 2 3 6 11 8 3 2 6 8 6 6 7 7 5 4 3 3 1 1 0 0 1 1 1 2 2 2 3 3 3 4 4 5 5 6 6 7 5 5 5 5 6 6 6 7 8
6 3 4 4 2 2 1 1 4 4 4 4 1 1 1 6 7 2 4 5 7 13 11 14 10 8 5 1 5 4 3 0 5 3 2 2 3 4 4 4 4 1 6 8 6 3 3 5 6 7 7 7 5 5 4 4 4 2 2 1 0 1 1 1 2 2 1 2 2 2 4 4 4 4 5 5 4 6 5 5 5 5 5 5 6 7 7
7 7 8 5 5 4 1 1 1 4 3 3 3 5 3 7 7 3 6 1 6 11 10 9 5 6 2 3 3 2 2 1 3 1 4 3 3 2 5 2 4 7 5 3 3 3 4 6 7 8 6 6 5 5 4 3 3 2 1 1 0 0 1 1 1 1 2 2 3 3 5 3 3 4 4 5 5 5 5 5 5 5 6 5 5 6 7
4 7 4 4 1 2 2 6 6 9 8 4 3 3 4 1 2 0 7 2 1 11 6 5 2 4 3 3 3 4 2 1 5 2 4 4 2 4 5 7 7 4 3 2 3 6 6 5 6 7 6 6 5 5 3 3 2 1 1 1 0 1 1 1 1 1 2 2 3 3 3 4 4 4 5 3 3 4 5 4 4 5 5 6 5 6 6
4 5 2 2 4 3 3 3 4 7 5 3 2 3 3 3 4 5 6 4 3 14 9 3 5 4 3 3 3 2 3 4 2 2 3 1 2 6 5 5 1 1 7 8 7 4 6 4 5 5 6 5 4 3 3 1 1 1 1 1 1 1 1 1 1 2 1 2 3 3 3 4 5 4 3 3 5 5 6 6 6 6 6 5 6 7 5
Wind_Direction
254 247 246 255 243 226 220 222 221 235 73 62 269 3 21 92 195 307 308 328 154 145 201 193 191 195 214 103 170 189 187 204 199 207 152 182 188 222 197 224 94 290 129 172 103 142 137 161 198 188 174 251 214 245 313 146 132 108 357 70 232 102 98 105 288 312 315 344 318 13 41 125 314 254 130 114 206 183 171 173 191 160 245 232 272 226 266
251 253 244 241 256 240 209 219 214 211 172 148 334 67 250 194 234 326 305 60 116 174 187 192 210 196 12 157 224 181 198 183 175 187 190 179 157 193 195 143 175 55 70 82 150 190 122 243 129 35 185 146 268 291 36 105 137 119 218 150 239 159 259 144 136 28 341 345 340 1 338 36 176 207 224 177 179 146 166 105 128 219 213 190 140 241 257
259 247 246 237 232 251 234 203 208 207 204 181 83 165 213 268 289 337 316 23 204 199 252 187 185 198 186 177 200 179 199 197 185 166 180 150 165 135 227 202 159 112 76 87 63 358 143 136 252 141 150 205 335 350 66 72 85 69 160 123 126 127 177 144 165 193 201 226 193 220 228 217 231 210 215 195 168 157 109 228 195 219 246 184 200 245 260
268 255 244 248 236 231 249 221 205 203 198 198 91 231 35 184 145 225 9 7 17 316 92 37 179 181 186 209 214 184 201 194 182 155 195 174 186 176 160 157 111 91 48 26 149 233 313 123 202 128 210 272 335 310 347 61 113 1 85 31 70 158 87 149 185 194 216 205 199 226 119 85 165 245 192 217 186 177 171 128 164 216 224 225 228 233 257
273 263 248 237 242 230 226 242 213 205 196 185 130 353 140 302 164 165 191 73 315 259 240 194 176 198 186 196 175 202 198 173 208 180 181 209 178 184 176 156 173 196 159 196 229 204 224 13 268 200 150 271 206 2 12 37 66 132 67 4 79 79 216 240 134 177 187 180 157 119 109 145 227 205 285 302 191 206 184 181 224 196 196 251 231 229 240
270 268 260 247 237 236 227 230 228 206 200 167 99 223 189 151 249 133 219 130 201 182 230 216 202 246 335 221 149 192 192 197 185 199 238 163 186 164 247 189 200 173 180 158 197 192 216 177 216 216 204 102 323 34 328 16 304 174 98 356 119 132 176 275 65 255 214 187 248 142 105 187 196 158 197 187 208 172 205 237 237 157 202 234 248 164 231
266 264 264 258 243 234 231 225 229 220 198 158 132 172 238 281 325 278 281 209 232 192 36 171 198 217 206 273 185 185 191 203 197 168 167 159 201 189 197 210 207 193 171 167 188 170 180 229 221 214 183 194 124 143 201 282 60 79 90 63 173 104 231 249 179 260 277 262 249 252 199 188 211 250 240 217 199 220 214 236 244 232 243 264 276 266 249
263 262 263 260 253 240 232 222 220 225 190 146 171 210 157 199 144 294 325 225 303 185 168 157 176 213 218 220 246 212 199 202 187 175 165 177 211 194 218 210 202 188 186 183 187 194 194 186 204 180 171 230 177 201 183 148 358 41 164 154 281 165 241 182 152 227 257 257 253 238 248 252 240 214 239 266 265 259 235 228 251 262 280 260 258 268 274
259 258 255 255 251 244 235 227 211 222 195 170 189 217 182 244 131 101 78 348 237 132 152 166 167 197 207 230 236 232 211 208 182 213 180 181 178 183 210 208 187 199 199 207 221 204 192 185 194 179 177 197 201 171 252 145 152 151 111 75 162 144 241 91 136 192 251 246 235 241 225 223 245 257 244 237 239 249 257 245 217 214 237 247 265 278 266
254 254 252 252 251 241 240 232 222 211 202 200 183 213 187 254 302 81 8 306 260 199 190 159 142 213 209 205 209 197 215 176 158 207 222 195 193 190 205 184 139 207 211 223 215 203 129 149 158 149 124 103 86 98 146 143 157 169 176 176 153 173 142 152 165 193 233 248 156 179 124 99 252 241 234 227 231 231 240 248 244 225 220 237 238 242 254
251 250 249 250 250 246 238 233 226 224 200 207 187 193 166 190 208 110 175 238 274 250 188 207 197 222 195 212 221 208 249 177 177 191 220 188 220 189 172 159 179 197 208 220 214 142 135 128 114 89 81 90 98 103 101 68 92 141 158 133 171 136 151 171 162 193 237 212 129 119 125 215 233 239 224 199 225 228 231 240 238 242 222 230 239 266 282
251 249 248 248 248 247 244 241 229 224 215 212 204 200 177 174 178 139 158 218 231 209 212 223 208 218 181 205 204 205 217 215 238 201 210 204 201 170 157 175 173 225 223 113 109 101 97 57 62 58 66 90 108 109 116 158 246 131 139 138 163 159 158 171 184 159 221 109 118 168 218 227 239 261 144 196 217 226 224 236 242 248 253 252 265 264 262
248 247 247 247 248 246 245 244 238 227 215 212 206 208 185 160 173 187 158 201 232 188 224 241 243 241 196 180 180 215 216 223 251 322 326 143 300 191 185 170 190 198 151 121 117 110 104 128 52 97 63 50 55 88 183 180 199 167 171 148 120 148 160 156 230 170 177 165 170 223 213 214 316 282 244 264 221 230 234 257 260 252 240 235 240 246 253
247 247 246 246 247 245 245 243 241 235 223 213 214 202 188 170 186 195 195 191 232 209 218 273 282 284 238 224 192 210 199 210 244 240 259 306 166 201 292 273 195 146 150 123 102 111 71 42 129 103 298 48 1 265 229 210 193 168 190 195 169 170 128 103 280 193 205 186 209 234 356 318 289 282 259 162 188 170 176 238 256 240 245 236 239 251 273
244 243 243 244 245 247 245 243 244 242 236 218 207 208 205 193 195 197 187 203 234 217 184 227 204 227 212 219 156 136 185 201 198 237 199 350 64 300 250 288 126 135 144 112 76 59 145 121 119 140 254 152 211 236 78 184 245 202 192 188 172 169 183 184 180 233 181 231 263 282 214 240 249 244 278 168 175 169 172 170 270 40 10 28 81 79 322
244 243 243 243 243 244 246 246 245 243 243 228 212 220 206 208 201 194 190 194 193 237 214 221 214 166 184 223 195 186 186 179 201 208 210 64 201 67 338 353 346 98 93 70 116 121 155 167 183 190 206 199 215 83 277 207 271 276 202 178 175 197 185 157 196 224 181 204 226 235 231 239 246 263 226 252 245 181 117 156 239 166 280 307 113 19 304
239 240 240 240 241 240 243 247 245 243 241 238 221 218 213 204 217 194 188 205 207 237 192 206 195 152 148 225 187 201 175 193 171 189 197 206 191 167 191 342 335 74 136 94 117 101 157 179 181 164 237 137 165 208 213 87 183 20 67 143 187 187 190 164 214 217 224 223 227 236 215 253 237 226 205 195 122 113 128 212 243 169 252 245 146 339 281
239 238 238 238 238 238 239 242 245 244 242 237 220 221 224 201 217 220 208 194 207 237 232 169 183 197 206 174 200 208 111 87 82 117 151 190 112 138 198 99 93 322 170 147 162 145 177 185 193 184 212 223 164 156 210 190 190 174 157 172 172 187 193 194 207 211 223 225 246 264 271 259 261 235 229 257 299 51 306 227 197 175 204 228 191 275 266
238 237 238 238 238 238 239 240 241 244 243 241 231 219 227 210 202 220 234 210 198 228 214 207 195 207 204 174 170 181 175 166 158 155 134 106 239 195 138 205 156 175 183 160 168 181 183 212 170 151 173 248 166 212 219 178 206 161 132 125 183 200 193 192 199 216 218 220 224 235 265 244 206 268 196 164 108 205 229 192 142 177 185 210 188 229 262
238 237 238 239 240 239 238 238 240 241 242 240 232 231 219 202 199 205 212 217 206 233 224 190 192 213 201 198 188 196 160 154 171 145 187 193 202 112 76 184 303 97 83 145 206 214 188 200 187 186 202 184 221 176 317 262 182 160 173 182 170 181 177 190 202 200 226 203 235 232 240 248 111 232 17 41 173 236 123 207 272 200 218 156 218 199 248
238 238 239 239 240 240 239 238 239 240 241 241 236 229 242 213 200 204 214 223 227 226 240 182 201 209 208 201 197 181 177 184 169 167 201 155 197 159 201 196 169 157 187 169 184 192 164 185 177 192 203 169 232 149 198 190 257 264 134 188 178 203 156 204 209 180 203 194 210 214 210 153 259 104 188 265 195 164 161 147 175 250 210 198 165 221 220
238 238 239 239 240 241 241 241 239 240 241 241 238 217 243 219 210 203 206 217 231 229 266 227 205 212 216 193 192 185 184 183 189 152 146 132 228 183 201 119 150 131 197 109 85 139 136 171 120 128 186 208 258 213 181 184 215 242 354 132 273 207 192 178 193 227 167 198 206 162 172 144 249 110 151 190 221 173 171 157 171 164 277 200 286 244 227
252 245 240 239 239 240 241 242 241 240 238 239 236 219 230 217 215 198 195 217 229 298 305 319 260 207 181 216 201 196 197 180 166 144 135 141 196 209 130 131 207 199 34 107 172 168 178 154 215 159 176 199 171 214 256 148 202 220 196 242 194 305 184 197 134 253 250 267 188 153 81 113 107 304 200 190 244 221 168 155 185 254 230 208 234 263 252
244 248 245 243 243 243 241 241 240 239 239 238 234 210 223 222 196 194 206 216 211 216 239 247 192 207 191 200 202 199 120 140 163 176 174 143 155 200 349 267 173 48 26 222 183 162 204 127 206 151 196 233 148 184 195 243 220 198 155 280 274 255 129 68 177 267 189 253 37 149 175 133 297 266 269 279 318 188 164 178 211 234 243 250 242 239 261
246 247 247 246 245 243 243 242 240 239 237 237 236 225 230 231 198 198 197 202 188 202 221 157 217 205 204 193 102 121 196 168 144 132 129 138 152 165 179 209 147 149 204 194 42 74 54 111 229 105 182 252 164 231 218 193 268 179 195 259 123 278 164 99 212 211 164 228 141 178 253 247 250 225 296 70 100 194 221 211 217 242 277 255 271 296 288
250 244 242 243 244 243 242 242 241 239 237 236 229 221 221 222 194 195 204 214 67 177 215 219 210 154 112 143 187 189 173 141 130 126 143 158 145 144 144 111 33 31 107 107 80 123 146 99 119 157 175 249 102 162 214 208 182 301 172 215 194 195 106 212 174 181 278 321 293 262 147 304 280 244 198 197 213 228 274 283 289 307 316 315 322 297 275
250 249 247 244 244 244 243 242 240 238 236 236 233 224 221 224 204 200 199 169 158 242 216 226 164 196 168 192 182 112 128 145 152 143 127 122 113 115 118 124 121 57 92 60 52 127 90 168 132 204 168 226 119 187 145 352 130 152 173 265 219 121 196 216 94 23 257 211 232 150 23 280 292 319 308 314 5 64 62 49 38 18 3 339 336 324 319
256 255 252 246 242 243 246 245 242 238 235 234 231 223 215 227 214 199 198 198 202 234 181 185 186 200 168 212 196 145 158 157 150 146 142 131 127 129 133 142 133 130 127 113 103 76 135 178 248 234 110 298 68 291 197 156 61 31 202 244 192 164 206 157 176 169 234 210 210 187 145 215 248 260 289 30 30 48 44 30 10 349 357 348 349 340 338
257 255 255 252 247 239 235 234 237 236 234 232 218 219 228 223 220 208 199 202 219 235 68 27 24 152 181 197 158 164 167 155 160 154 147 143 138 141 140 151 151 144 109 86 125 123 137 204 182 137 166 224 102 264 152 194 192 213 227 238 210 212 178 158 180 163 244 226 215 203 192 235 264 257 92 60 29 32 22 37 24 22 13 357 352 343 337
258 257 254 253 250 244 235 228 230 231 230 219 174 179 224 228 211 206 193 196 196 146 193 161 182 221 51 33 154 168 176 163 152 152 154 153 152 154 153 139 143 137 129 154 157 146 215 136 261 237 243 55 134 226 220 224 206 247 226 245 240 245 195 185 155 172 240 252 36 146 171 225 243 223 99 84 37 15 15 17 29 4 352 345 338 329 338
264 264 260 256 251 246 237 230 230 229 225 196 176 199 205 229 194 189 188 192 188 180 227 224 194 102 38 265 179 180 158 158 163 160 163 159 155 144 146 109 105 138 118 129 133 215 156 154 167 266 243 158 112 152 190 175 249 284 238 229 241 228 177 223 166 30 36 20 331 300 79 26 311 5 113 44 5 6 22 5 360 358 334 339 334 327 320
270 268 266 256 249 242 234 228 227 225 215 193 204 196 194 235 202 171 180 175 152 185 186 155 184 148 179 161 180 183 159 159 131 111 125 123 151 145 153 148 173 147 141 142 196 108 223 210 169 223 157 209 138 147 138 162 219 234 242 248 74 112 88 112 100 56 46 8 11 357 126 94 38 72 303 355 336 4 31 358 351 342 337 322 316 314 326
275 274 270 258 241 233 227 224 223 219 201 207 217 224 193 172 221 183 171 156 149 206 182 196 178 175 174 210 104 236 142 112 122 139 184 183 167 137 155 141 121 97 179 124 222 189 203 172 157 213 230 176 145 179 212 224 226 236 234 150 147 103 107 89 93 76 59 20 18 175 242 177 249 358 335 305 345 16 15 1 344 336 338 342 342 341 337
279 277 267 254 241 227 221 220 220 218 202 190 203 215 218 217 201 189 169 155 139 155 155 191 170 117 146 113 120 222 164 154 165 166 168 168 153 139 163 128 167 148 253 189 211 110 311 127 197 214 138 326 219 185 226 229 230 238 197 128 185 347 120 135 112 100 67 54 37 50 208 255 297 292 320 18 6 13 25 0 353 347 340 347 339 337 328
279 278 268 248 234 224 220 217 206 210 206 197 213 213 202 201 197 191 176 159 156 198 168 220 160 140 93 44 160 180 155 146 161 166 157 155 122 144 143 111 194 179 245 89 95 168 184 207 146 151 212 162 190 223 219 226 229 214 121 166 330 15 36 137 136 69 31 0 334 303 300 327 58 43 32 352 2 9 3 358 355 354 338 333 332 330 337
275 272 257 236 229 222 216 209 197 172 200 205 211 186 188 197 198 191 184 197 198 161 173 194 163 172 146 154 167 190 127 146 145 114 99 121 93 103 83 141 167 195 100 137 197 181 196 201 133 212 182 204 217 209 224 221 231 197 171 165 90 80 117 171 335 341 321 288 249 260 70 40 44 13 46 12 25 13 360 340 345 357 325 314 321 326 326
274 267 242 229 225 192 207 203 175 194 197 193 188 172 181 178 158 177 193 204 263 233 198 163 164 190 161 152 75 198 147 163 149 143 156 135 151 121 128 156 183 138 88 136 201 206 215 94 119 184 202 212 220 203 66 84 207 186 160 130 109 74 76 62 19 313 325 316 140 85 27 358 357 27 32 21 10 359 349 344 345 343 328 321 320 320 317
269 254 224 184 158 196 199 193 187 171 176 171 153 152 180 177 188 165 162 208 212 143 252 176 182 158 116 133 150 173 140 165 135 149 123 148 124 174 148 140 194 136 167 188 213 138 85 128 195 203 229 220 17 85 9 84 84 66 79 89 87 82 75 49 357 38 8 320 293 342 346 348 338 32 4 342 344 332 328 316 318 310 302 302 305 309 310
267 213 180 175 181 192 198 179 155 151 142 151 159 144 170 156 165 196 191 152 158 204 217 178 178 154 154 136 130 139 159 150 153 169 148 171 138 161 147 157 224 108 242 119 259 140 178 219 202 159 237 207 218 219 141 104 79 73 75 76 78 73 72 49 41 74 107 160 125 122 191 289 310 313 342 317 307 300 305 315 312 307 306 302 303 301 299
131 189 176 152 194 194 121 142 149 153 148 164 177 172 206 193 184 219 141 124 175 208 151 187 171 160 170 151 138 164 226 153 156 161 162 136 182 143 142 77 257 109 191 165 208 118 159 187 194 162 250 222 218 133 132 134 110 83 76 75 71 66 64 63 42 30 57 11 28 0 355 324 321 311 313 312 312 308 308 305 301 303 304 300 303 305 302
181 144 170 187 171 143 156 138 109 125 150 117 103 230 191 198 209 167 135 192 159 186 148 138 130 117 33 127 148 144 146 64 25 67 111 138 208 86 100 158 216 95 217 157 219 91 109 71 177 193 232 208 165 159 143 116 120 97 77 82 73 63 61 45 45 4 45 10 355 312 320 310 303 296 294 292 299 296 299 303 304 302 302 303 305 301 302
195 171 141 105 106 124 121 100 148 108 56 169 157 197 200 204 76 59 202 169 193 149 124 155 154 152 154 152 149 124 111 187 123 118 121 154 220 123 166 77 12 122 171 204 113 83 100 139 199 249 233 152 127 122 132 127 117 126 98 80 71 68 52 41 353 336 345 356 303 314 297 310 300 293 295 299 292 296 298 299 296 296 293 294 296 297 298
111 101 106 90 91 327 133 96 227 164 169 149 130 176 175 134 206 154 154 298 323 122 160 59 101 90 37 54 63 3 135 165 124 150 92 153 96 66 100 106 122 104 214 69 96 122 141 193 213 227 152 148 148 138 136 138 115 132 111 96 108 170 108 60 350 318 313 343 284 288 281 286 283 278 281 286 290 289 285 284 290 295 296 295 295 298 299
123 116 97 167 121 276 157 179 188 109 163 139 161 178 176 158 240 83 125 175 171 137 166 136 149 137 147 267 123 130 74 32 98 93 51 53 83 135 105 144 198 233 54 78 110 151 205 228 216 196 125 128 126 145 144 148 143 123 96 128 68 98 142 100 0 30 336 308 318 282 291 284 282 286 283 276 278 283 290 294 289 291 295 300 299 298 299
135 117 111 95 113 274 133 206 2 165 190 191 162 164 175 149 152 155 155 187 160 159 167 149 149 144 139 159 69 29 114 153 341 97 180 125 77 92 116 207 213 41 99 167 89 313 16 252 225 59 159 166 169 159 145 141 156 148 159 115 128 91 33 116 312 41 315 317 297 312 318 300 305 295 291 282 275 273 287 295 300 303 302 302 300 300 299
141 144 147 132 126 322 180 146 106 131 282 62 178 193 164 164 154 169 227 134 143 147 147 149 133 124 128 261 124 164 120 106 79 119 124 96 122 156 215 73 65 77 46 52 138 200 213 222 164 193 170 165 150 153 144 160 143 140 101 120 172 108 321 68 271 252 286 303 304 310 302 308 299 298 299 292 290 290 286 285 291 296 296 302 301 303 303
72 42 96 92 97 229 40 159 205 183 146 180 225 244 272 315 9 111 155 240 155 149 133 124 126 137 134 149 102 34 60 82 109 206 76 84 126 119 33 96 149 155 138 189 217 233 242 241 178 120 140 137 140 135 150 140 144 121 166 150 133 178 255 70 297 271 271 284 292 295 294 293 295 292 290 300 300 292 290 293 291 289 289 290 296 298 300
101 310 98 107 146 132 115 226 183 138 234 216 246 259 244 247 152 102 339 308 151 132 131 127 116 100 69 327 56 128 130 132 91 329 145 131 67 63 87 55 136 182 186 164 216 207 202 177 154 148 136 133 141 140 146 142 138 141 155 144 201 256 266 262 307 290 285 286 297 298 293 295 297 300 303 296 299 301 295 293 295 295 292 297 298 302 305
70 69 88 126 124 121 41 61 131 76 355 332 273 2 155 127 113 52 315 300 154 137 137 132 138 114 120 143 111 128 105 223 104 182 84 47 117 163 150 174 156 229 247 194 217 156 167 139 127 123 123 124 134 140 137 154 148 169 158 172 219 229 244 246 260 278 307 296 288 288 292 290 297 300 299 303 303 302 310 311 310 308 304 309 316 315 317
54 34 20 37 84 44 12 111 345 70 338 35 23 80 16 104 99 17 315 42 120 117 98 71 37 88 134 117 85 68 90 32 123 102 80 138 162 147 79 145 226 195 221 178 159 163 125 129 127 125 131 129 128 134 142 148 137 154 200 187 240 300 279 263 291 305 308 301 291 287 291 314 314 306 302 302 298 298 315 324 330 336 327 318 320 326 326
56 84 110 261 24 101 335 165 180 153 140 122 17 26 352 4 35 12 345 356 237 124 92 119 152 110 111 69 111 99 238 176 83 132 149 161 160 129 167 189 223 196 142 28 88 119 121 119 127 130 130 131 134 135 153 157 155 193 185 134 14 71 347 36 344 332 323 318 308 352 352 332 298 287 283 303 329 343 337 333 341 345 340 337 334 334 338
48 71 50 56 55 78 316 263 16 39 47 73 53 335 345 15 341 299 320 319 172 141 139 150 93 102 74 131 181 131 71 70 133 111 90 262 137 155 214 186 169 163 148 138 122 103 97 91 107 128 135 141 144 145 146 146 147 121 126 99 108 70 22 5 345 337 306 346 4 21 347 336 336 333 337 13 17 12 7 343 335 337 342 342 338 336 340